Time,TemperatureF,DewpointF,PressureIn,WindDirection,WindDirectionDegrees,WindSpeedMPH,WindSpeedGustMPH,Humidity,HourlyPrecipIn,Conditions,Clouds,dailyrainin,SoftwareType,DateUTC
2013-09-25 00:01:00,64.2,-99.9,24.92,NE,40,4.0,5.8,-999,0.00,,,-99.99,FreeWX 2.04,2013-09-25 06:01:00,
2013-09-25 00:06:00,63.1,11.5,24.92,NE,36,3.0,6.7,13,0.00,,,-99.99,FreeWX 2.04,2013-09-25 06:06:00,
2013-09-25 00:11:00,63.9,-99.9,24.92,NNE,28,4.0,6.7,-999,0.00,,,-99.99,FreeWX 2.04,2013-09-25 06:11:00,
2013-09-25 00:16:00,64.2,-99.9,24.92,North,9,4.0,7.4,-999,0.00,,,-99.99,FreeWX 2.04,2013-09-25 06:16:00,
2013-09-25 00:21:00,64.0,-99.9,24.92,North,5,4.0,6.3,-999,0.00,,,-99.99,FreeWX 2.04,2013-09-25 06:21:00,
2013-09-25 00:26:00,63.9,-99.9,24.92,NNE,12,4.0,7.8,-999,0.00,,,-99.99,FreeWX 2.04,2013-09-25 06:26:00,
2013-09-25 00:31:00,63.5,11.8,24.92,North,10,4.0,7.4,13,0.00,,,-99.99,FreeWX 2.04,2013-09-25 06:31:00,
2013-09-25 00:36:00,63.1,11.5,24.92,North,359,5.0,6.9,13,0.00,,,-99.99,FreeWX 2.04,2013-09-25 06:36:00,
2013-09-25 00:41:00,63.0,11.3,24.92,North,7,5.0,8.7,13,0.00,,,-99.99,FreeWX 2.04,2013-09-25 06:41:00,
2013-09-25 00:46:00,64.0,12.2,24.92,NNE,27,6.0,10.5,13,0.00,,,-99.99,FreeWX 2.04,2013-09-25 06:46:00,
2013-09-25 00:51:00,64.4,-99.9,24.92,NNE,26,6.0,9.6,-999,0.00,,,-99.99,FreeWX 2.04,2013-09-25 06:51:00,
2013-09-25 00:56:00,63.7,12.0,24.92,NNE,24,6.0,9.6,13,0.00,,,-99.99,FreeWX 2.04,2013-09-25 06:56:00,
2013-09-25 01:01:00,63.0,11.3,24.92,NNE,25,6.0,11.0,13,0.00,,,-99.99,FreeWX 2.04,2013-09-25 07:01:00,
2013-09-25 01:06:00,62.6,11.1,24.89,NNE,30,6.0,10.1,13,0.00,,,-99.99,FreeWX 2.04,2013-09-25 07:06:00,
2013-09-25 01:11:00,64.2,12.4,24.89,NE,34,6.0,10.5,13,0.00,,,-99.99,FreeWX 2.04,2013-09-25 07:11:00,
2013-09-25 01:16:00,65.1,-99.9,24.89,NE,36,6.0,11.2,-999,0.00,,,-99.99,FreeWX 2.04,2013-09-25 07:16:00,
2013-09-25 01:21:00,65.1,-99.9,24.89,NE,36,6.0,10.1,-999,0.00,,,-99.99,FreeWX 2.04,2013-09-25 07:21:00,
2013-09-25 01:26:00,64.9,-99.9,24.89,NE,36,7.0,12.5,-999,0.00,,,-99.99,FreeWX 2.04,2013-09-25 07:26:00,
2013-09-25 01:31:00,65.5,-99.9,24.89,NE,40,7.0,11.0,-999,0.00,,,-99.99,FreeWX 2.04,2013-09-25 07:31:00,
2013-09-25 01:36:00,64.0,12.2,24.89,NE,34,7.0,11.6,13,0.00,,,-99.99,FreeWX 2.04,2013-09-25 07:36:00,
2013-09-25 01:41:00,64.4,12.6,24.89,NNE,28,7.0,11.6,13,0.00,,,-99.99,FreeWX 2.04,2013-09-25 07:41:00,
2013-09-25 01:46:00,65.3,-99.9,24.89,NNE,32,7.0,14.8,-999,0.00,,,-99.99,FreeWX 2.04,2013-09-25 07:46:00,
2013-09-25 01:51:00,66.9,-99.9,24.89,NNE,27,8.0,15.4,-999,0.00,,,-99.99,FreeWX 2.04,2013-09-25 07:51:00,
2013-09-25 01:56:00,66.6,-99.9,24.89,NNE,17,8.0,14.3,-999,0.00,,,-99.99,FreeWX 2.04,2013-09-25 07:56:00,
2013-09-25 02:01:00,66.7,-99.9,24.89,NNE,14,9.0,15.2,-999,0.00,,,-99.99,FreeWX 2.04,2013-09-25 08:01:00,
2013-09-25 02:06:00,65.5,-99.9,24.89,NNE,17,9.0,13.4,-999,0.00,,,-99.99,FreeWX 2.04,2013-09-25 08:06:00,
2013-09-25 02:11:00,65.7,-99.9,24.89,NNE,19,8.0,14.3,-999,0.00,,,-99.99,FreeWX 2.04,2013-09-25 08:11:00,
2013-09-25 02:16:00,65.5,-99.9,24.89,NNE,16,9.0,12.1,-999,0.00,,,-99.99,FreeWX 2.04,2013-09-25 08:16:00,
2013-09-25 02:21:00,64.9,-99.9,24.89,NNE,22,8.0,12.1,-999,0.00,,,-99.99,FreeWX 2.04,2013-09-25 08:21:00,
2013-09-25 02:26:00,64.8,-99.9,24.89,NNE,32,6.0,10.1,-999,0.00,,,-99.99,FreeWX 2.04,2013-09-25 08:26:00,
2013-09-25 02:31:00,64.6,-99.9,24.89,NE,40,6.0,13.9,-999,0.00,,,-99.99,FreeWX 2.04,2013-09-25 08:31:00,
2013-09-25 02:36:00,64.4,-99.9,24.89,NE,40,6.0,11.6,-999,0.00,,,-99.99,FreeWX 2.04,2013-09-25 08:36:00,
2013-09-25 02:41:00,65.1,-99.9,24.89,NE,37,6.0,13.4,-999,0.00,,,-99.99,FreeWX 2.04,2013-09-25 08:41:00,
2013-09-25 02:46:00,65.3,-99.9,24.89,NE,38,7.0,13.9,-999,0.00,,,-99.99,FreeWX 2.04,2013-09-25 08:46:00,
2013-09-25 02:51:00,64.9,-99.9,24.86,NE,38,6.0,15.2,-999,0.00,,,-99.99,FreeWX 2.04,2013-09-25 08:51:00,
2013-09-25 02:56:00,65.8,-99.9,24.86,NNE,31,7.0,14.8,-999,0.00,,,-99.99,FreeWX 2.04,2013-09-25 08:56:00,
2013-09-25 03:01:00,64.9,-99.9,24.86,NNE,28,8.0,12.5,-999,0.00,,,-99.99,FreeWX 2.04,2013-09-25 09:01:00,
2013-09-25 03:06:00,66.4,-99.9,24.86,NNE,24,9.0,15.4,-999,0.00,,,-99.99,FreeWX 2.04,2013-09-25 09:06:00,
2013-09-25 03:11:00,66.0,-99.9,24.86,NNE,21,10.0,14.3,-999,0.00,,,-99.99,FreeWX 2.04,2013-09-25 09:11:00,
2013-09-25 03:16:00,65.7,-99.9,24.86,NNE,21,9.0,13.4,-999,0.00,,,-99.99,FreeWX 2.04,2013-09-25 09:16:00,
2013-09-25 03:21:00,65.8,-99.9,24.86,NNE,22,8.0,13.0,-999,0.00,,,-99.99,FreeWX 2.04,2013-09-25 09:21:00,
2013-09-25 03:26:00,66.2,-99.9,24.86,NNE,23,9.0,14.8,-999,0.00,,,-99.99,FreeWX 2.04,2013-09-25 09:26:00,
2013-09-25 03:31:00,65.5,-99.9,24.86,NNE,27,8.0,11.0,-999,0.00,,,-99.99,FreeWX 2.04,2013-09-25 09:31:00,
2013-09-25 03:36:00,65.1,-99.9,24.86,NNE,32,6.0,10.1,-999,0.00,,,-99.99,FreeWX 2.04,2013-09-25 09:36:00,
2013-09-25 03:41:00,66.0,-99.9,24.86,NNE,18,6.0,11.2,-999,0.00,,,-99.99,FreeWX 2.04,2013-09-25 09:41:00,
2013-09-25 03:46:00,65.7,-99.9,24.86,North,9,6.0,13.0,-999,0.00,,,-99.99,FreeWX 2.04,2013-09-25 09:46:00,
2013-09-25 03:51:00,66.4,-99.9,24.86,North,2,7.0,12.5,-999,0.00,,,-99.99,FreeWX 2.04,2013-09-25 09:51:00,
2013-09-25 03:56:00,66.0,-99.9,24.86,North,349,8.0,12.5,-999,0.00,,,-99.99,FreeWX 2.04,2013-09-25 09:56:00,
2013-09-25 04:01:00,64.9,-99.9,24.86,NNW,347,7.0,11.6,-999,0.00,,,-99.99,FreeWX 2.04,2013-09-25 10:01:00,
2013-09-25 04:06:00,61.2,14.7,24.86,NNE,22,6.0,9.6,16,0.00,,,-99.99,FreeWX 2.04,2013-09-25 10:06:00,
2013-09-25 04:11:00,62.2,10.8,24.86,ENE,61,5.0,6.7,13,0.00,,,-99.99,FreeWX 2.04,2013-09-25 10:11:00,
2013-09-25 04:16:00,60.8,18.3,24.86,ENE,71,4.0,8.7,19,0.00,,,-99.99,FreeWX 2.04,2013-09-25 10:16:00,
2013-09-25 04:21:00,59.7,20.8,24.86,ESE,112,4.0,4.9,22,0.00,,,-99.99,FreeWX 2.04,2013-09-25 10:21:00,
2013-09-25 04:26:00,59.7,23.9,24.86,South,169,3.0,8.3,25,0.00,,,-99.99,FreeWX 2.04,2013-09-25 10:26:00,
2013-09-25 04:31:00,58.6,23.9,24.86,SSW,201,5.0,8.3,26,0.00,,,-99.99,FreeWX 2.04,2013-09-25 10:31:00,
2013-09-25 04:36:00,56.5,29.1,24.86,SSW,202,5.0,6.3,35,0.00,,,-99.99,FreeWX 2.04,2013-09-25 10:36:00,
2013-09-25 04:41:00,56.3,28.9,24.86,SSW,211,4.0,6.7,35,0.00,,,-99.99,FreeWX 2.04,2013-09-25 10:41:00,
2013-09-25 04:46:00,59.9,25.0,24.86,West,271,5.0,11.0,26,0.00,,,-99.99,FreeWX 2.04,2013-09-25 10:46:00,
2013-09-25 04:51:00,60.3,24.3,24.86,NW,320,5.0,7.4,25,0.00,,,-99.99,FreeWX 2.04,2013-09-25 10:51:00,
2013-09-25 04:56:00,58.5,24.6,24.86,NNE,28,4.0,7.8,27,0.00,,,-99.99,FreeWX 2.04,2013-09-25 10:56:00,
2013-09-25 05:01:00,57.6,24.6,24.86,ENE,65,4.0,5.4,28,0.00,,,-99.99,FreeWX 2.04,2013-09-25 11:01:00,
2013-09-25 05:06:00,57.4,25.3,24.83,ENE,63,3.0,6.3,29,0.00,,,-99.99,FreeWX 2.04,2013-09-25 11:06:00,
2013-09-25 05:11:00,57.0,25.9,24.83,East,94,3.0,6.3,30,0.00,,,-99.99,FreeWX 2.04,2013-09-25 11:11:00,
2013-09-25 05:16:00,57.6,26.4,24.83,ESE,112,3.0,6.3,30,0.00,,,-99.99,FreeWX 2.04,2013-09-25 11:16:00,
2013-09-25 05:21:00,56.3,26.1,24.83,ESE,104,2.0,5.4,31,0.00,,,-99.99,FreeWX 2.04,2013-09-25 11:21:00,
2013-09-25 05:26:00,56.1,26.6,24.83,East,99,1.0,2.7,32,0.00,,,-99.99,FreeWX 2.04,2013-09-25 11:26:00,
2013-09-25 05:31:00,55.2,28.0,24.83,North,-999,0.0,3.6,35,0.00,,,-99.99,FreeWX 2.04,2013-09-25 11:31:00,
2013-09-25 05:36:00,55.9,27.3,24.83,East,94,1.0,5.4,33,0.00,,,-99.99,FreeWX 2.04,2013-09-25 11:36:00,
2013-09-25 05:41:00,56.5,27.0,24.83,East,94,1.0,3.6,32,0.00,,,-99.99,FreeWX 2.04,2013-09-25 11:41:00,
2013-09-25 05:46:00,62.4,25.2,24.83,ENE,70,3.0,12.5,24,0.00,,,-99.99,FreeWX 2.04,2013-09-25 11:46:00,
2013-09-25 05:51:00,65.5,11.5,24.83,NNE,19,9.0,19.0,12,0.00,,,-99.99,FreeWX 2.04,2013-09-25 11:51:00,
2013-09-25 05:56:00,64.9,12.9,24.83,North,10,12.0,18.1,13,0.00,,,-99.99,FreeWX 2.04,2013-09-25 11:56:00,
2013-09-25 06:01:00,64.9,12.9,24.83,NNE,17,10.0,14.8,13,0.00,,,-99.99,FreeWX 2.04,2013-09-25 12:01:00,
2013-09-25 06:06:00,65.1,13.1,24.83,NNE,22,8.0,11.2,13,0.00,,,-99.99,FreeWX 2.04,2013-09-25 12:06:00,
2013-09-25 06:11:00,65.3,-99.9,24.83,NNE,27,8.0,15.4,-999,0.00,,,-99.99,FreeWX 2.04,2013-09-25 12:11:00,
2013-09-25 06:16:00,64.8,12.7,24.83,NE,38,7.0,10.5,13,0.00,,,-99.99,FreeWX 2.04,2013-09-25 12:16:00,
2013-09-25 06:21:00,65.1,-99.9,24.83,NE,37,6.0,11.2,-999,0.00,,,-99.99,FreeWX 2.04,2013-09-25 12:21:00,
2013-09-25 06:26:00,64.2,12.4,24.83,NNE,31,6.0,10.5,13,0.00,,,-99.99,FreeWX 2.04,2013-09-25 12:26:00,
2013-09-25 06:31:00,63.5,11.8,24.83,NE,37,5.0,7.8,13,0.00,,,-99.99,FreeWX 2.04,2013-09-25 12:31:00,
2013-09-25 06:36:00,63.3,11.7,24.83,NNE,33,5.0,12.1,13,0.00,,,-99.99,FreeWX 2.04,2013-09-25 12:36:00,
2013-09-25 06:41:00,62.8,11.3,24.83,NE,34,5.0,6.9,13,0.00,,,-99.99,FreeWX 2.04,2013-09-25 12:41:00,
2013-09-25 06:46:00,62.8,11.3,24.83,NE,41,4.0,6.9,13,0.00,,,-99.99,FreeWX 2.04,2013-09-25 12:46:00,
2013-09-25 06:51:00,64.4,12.6,24.83,NNE,31,6.0,15.2,13,0.00,,,-99.99,FreeWX 2.04,2013-09-25 12:51:00,
2013-09-25 06:56:00,64.2,12.4,24.83,NNE,20,7.0,12.1,13,0.00,,,-99.99,FreeWX 2.04,2013-09-25 12:56:00,
2013-09-25 07:01:00,65.5,-99.9,24.83,NNE,18,8.0,15.2,-999,0.00,,,-99.99,FreeWX 2.04,2013-09-25 13:01:00,
2013-09-25 07:06:00,65.1,-99.9,24.83,NNE,12,8.0,12.1,-999,0.00,,,-99.99,FreeWX 2.04,2013-09-25 13:06:00,
2013-09-25 07:11:00,64.6,-99.9,24.83,NNE,26,7.0,11.2,-999,0.00,,,-99.99,FreeWX 2.04,2013-09-25 13:11:00,
2013-09-25 07:16:00,64.4,12.6,24.83,NE,39,5.0,8.7,13,0.00,,,-99.99,FreeWX 2.04,2013-09-25 13:16:00,
2013-09-25 07:21:00,63.9,12.0,24.83,NE,54,4.0,8.3,13,0.00,,,-99.99,FreeWX 2.04,2013-09-25 13:21:00,
2013-09-25 07:26:00,63.0,16.2,24.83,ENE,73,3.0,4.9,16,0.00,,,-99.99,FreeWX 2.04,2013-09-25 13:26:00,
2013-09-25 07:31:00,58.3,25.3,24.83,ESE,113,4.0,8.7,28,0.00,,,-99.99,FreeWX 2.04,2013-09-25 13:31:00,
2013-09-25 07:36:00,56.3,28.9,24.83,South,170,5.0,7.4,35,0.00,,,-99.99,FreeWX 2.04,2013-09-25 13:36:00,
2013-09-25 07:41:00,57.0,28.2,24.83,South,187,4.0,5.4,33,0.00,,,-99.99,FreeWX 2.04,2013-09-25 13:41:00,
2013-09-25 07:46:00,57.7,26.6,24.83,SW,226,2.0,4.5,30,0.00,,,-99.99,FreeWX 2.04,2013-09-25 13:46:00,
2013-09-25 07:51:00,58.8,27.5,24.83,WSW,258,1.0,4.5,30,0.00,,,-99.99,FreeWX 2.04,2013-09-25 13:51:00,
2013-09-25 07:56:00,59.7,27.5,24.83,West,264,2.0,5.4,29,0.00,,,-99.99,FreeWX 2.04,2013-09-25 13:56:00,
2013-09-25 08:01:00,60.3,27.0,24.83,NW,318,2.0,5.8,28,0.00,,,-99.99,FreeWX 2.04,2013-09-25 14:01:00,
2013-09-25 08:06:00,63.1,26.8,24.83,NNW,332,3.0,6.9,25,0.00,,,-99.99,FreeWX 2.04,2013-09-25 14:06:00,
2013-09-25 08:11:00,65.8,19.8,24.83,North,352,4.0,10.5,17,0.00,,,-99.99,FreeWX 2.04,2013-09-25 14:11:00,
2013-09-25 08:16:00,66.4,17.4,24.83,NNE,16,4.0,12.1,15,0.00,,,-99.99,FreeWX 2.04,2013-09-25 14:16:00,
2013-09-25 08:21:00,66.9,12.7,24.83,North,2,6.0,8.7,12,0.00,,,-99.99,FreeWX 2.04,2013-09-25 14:21:00,
2013-09-25 08:26:00,66.6,12.4,24.83,NNW,333,5.0,10.5,12,0.00,,,-99.99,FreeWX 2.04,2013-09-25 14:26:00,
2013-09-25 08:31:00,66.4,12.2,24.83,NW,321,5.0,11.2,12,0.00,,,-99.99,FreeWX 2.04,2013-09-25 14:31:00,
2013-09-25 08:36:00,64.4,25.9,24.83,WNW,293,6.0,12.1,23,0.00,,,-99.99,FreeWX 2.04,2013-09-25 14:36:00,
2013-09-25 08:41:00,64.0,25.5,24.83,WSW,243,6.0,11.0,23,0.00,,,-99.99,FreeWX 2.04,2013-09-25 14:41:00,
2013-09-25 08:46:00,63.3,27.0,24.83,South,191,5.0,10.5,25,0.00,,,-99.99,FreeWX 2.04,2013-09-25 14:46:00,
2013-09-25 08:51:00,65.7,23.5,24.80,East,94,6.0,17.2,20,0.00,,,-99.99,FreeWX 2.04,2013-09-25 14:51:00,
2013-09-25 08:56:00,64.8,26.1,24.80,East,82,6.0,10.1,23,0.00,,,-99.99,FreeWX 2.04,2013-09-25 14:56:00,
2013-09-25 09:01:00,64.9,26.2,24.80,SE,134,6.0,11.6,23,0.00,,,-99.99,FreeWX 2.04,2013-09-25 15:01:00,
2013-09-25 09:06:00,66.2,26.2,24.80,SE,138,6.0,8.7,22,0.00,,,-99.99,FreeWX 2.04,2013-09-25 15:06:00,
2013-09-25 09:11:00,67.5,21.2,24.80,SSE,156,4.0,6.9,17,0.00,,,-99.99,FreeWX 2.04,2013-09-25 15:11:00,
2013-09-25 09:16:00,69.4,14.7,24.80,SE,145,4.0,6.9,12,0.00,,,-99.99,FreeWX 2.04,2013-09-25 15:16:00,
2013-09-25 09:21:00,69.8,-99.9,24.80,ENE,67,3.0,6.3,-999,0.00,,,-99.99,FreeWX 2.04,2013-09-25 15:21:00,
2013-09-25 09:26:00,70.7,-99.9,24.80,East,80,4.0,13.4,-999,0.00,,,-99.99,FreeWX 2.04,2013-09-25 15:26:00,
2013-09-25 09:32:00,71.6,-99.9,24.80,ENE,62,8.0,21.9,-999,0.00,,,-99.99,FreeWX 2.04,2013-09-25 15:32:00,
2013-09-25 09:37:00,72.3,-99.9,24.80,ENE,69,10.0,29.1,-999,0.00,,,-99.99,FreeWX 2.04,2013-09-25 15:37:00,
2013-09-25 09:42:00,71.6,-99.9,24.80,East,93,8.0,13.9,-999,0.00,,,-99.99,FreeWX 2.04,2013-09-25 15:42:00,
2013-09-25 09:47:00,72.3,-99.9,24.80,ESE,102,8.0,22.4,-999,0.00,,,-99.99,FreeWX 2.04,2013-09-25 15:47:00,
2013-09-25 09:52:00,72.3,-99.9,24.80,NE,55,10.0,20.6,-999,0.00,,,-99.99,FreeWX 2.04,2013-09-25 15:52:00,
2013-09-25 09:57:00,73.0,-99.9,24.80,ENE,65,12.0,20.1,-999,0.00,,,-99.99,FreeWX 2.04,2013-09-25 15:57:00,
2013-09-25 10:02:00,72.5,-99.9,24.80,ENE,62,12.0,20.6,-999,0.00,,,-99.99,FreeWX 2.04,2013-09-25 16:02:00,
2013-09-25 10:07:00,73.0,-99.9,24.80,ENE,57,12.0,19.9,-999,0.00,,,-99.99,FreeWX 2.04,2013-09-25 16:07:00,
2013-09-25 10:12:00,73.4,-99.9,24.80,ENE,63,12.0,23.7,-999,0.00,,,-99.99,FreeWX 2.04,2013-09-25 16:12:00,
2013-09-25 10:17:00,73.2,-99.9,24.80,ENE,64,14.0,25.7,-999,0.00,,,-99.99,FreeWX 2.04,2013-09-25 16:17:00,
2013-09-25 10:22:00,73.4,-99.9,24.77,ENE,57,14.0,22.4,-999,0.00,,,-99.99,FreeWX 2.04,2013-09-25 16:22:00,
2013-09-25 10:27:00,73.2,-99.9,24.77,NE,56,14.0,21.0,-999,0.00,,,-99.99,FreeWX 2.04,2013-09-25 16:27:00,
2013-09-25 10:32:00,74.3,-99.9,24.77,ENE,57,12.0,25.3,-999,0.00,,,-99.99,FreeWX 2.04,2013-09-25 16:32:00,
2013-09-25 10:37:00,73.8,-99.9,24.77,NE,49,11.0,17.2,-999,0.00,,,-99.99,FreeWX 2.04,2013-09-25 16:37:00,
2013-09-25 10:42:00,73.9,-99.9,24.77,NE,50,13.0,27.1,-999,0.00,,,-99.99,FreeWX 2.04,2013-09-25 16:42:00,
2013-09-25 10:47:00,73.8,-99.9,24.77,NE,55,14.0,24.4,-999,0.00,,,-99.99,FreeWX 2.04,2013-09-25 16:47:00,
2013-09-25 10:52:00,74.3,-99.9,24.77,ENE,61,12.0,33.3,-999,0.00,,,-99.99,FreeWX 2.04,2013-09-25 16:52:00,
2013-09-25 10:57:00,73.8,-99.9,24.77,NE,56,12.0,24.8,-999,0.00,,,-99.99,FreeWX 2.04,2013-09-25 16:57:00,
2013-09-25 11:02:00,73.6,-99.9,24.77,NE,50,14.0,36.0,-999,0.00,,,-99.99,FreeWX 2.04,2013-09-25 17:02:00,
2013-09-25 11:07:00,74.1,-99.9,24.77,ENE,59,14.0,29.1,-999,0.00,,,-99.99,FreeWX 2.04,2013-09-25 17:07:00,
2013-09-25 11:12:00,74.1,-99.9,24.77,NE,48,11.0,24.2,-999,0.00,,,-99.99,FreeWX 2.04,2013-09-25 17:12:00,
2013-09-25 11:17:00,74.3,-99.9,24.77,NE,34,11.0,29.1,-999,0.00,,,-99.99,FreeWX 2.04,2013-09-25 17:17:00,
2013-09-25 11:22:00,74.8,-99.9,24.77,NNE,31,11.0,19.5,-999,0.00,,,-99.99,FreeWX 2.04,2013-09-25 17:22:00,
2013-09-25 11:27:00,74.8,-99.9,24.77,NE,34,11.0,26.6,-999,0.00,,,-99.99,FreeWX 2.04,2013-09-25 17:27:00,
2013-09-25 11:32:00,74.8,-99.9,24.77,NE,36,11.0,21.0,-999,0.00,,,-99.99,FreeWX 2.04,2013-09-25 17:32:00,
2013-09-25 11:37:00,74.7,-99.9,24.77,NE,39,12.0,29.5,-999,0.00,,,-99.99,FreeWX 2.04,2013-09-25 17:37:00,
2013-09-25 11:42:00,74.7,-99.9,24.77,NE,44,14.0,30.9,-999,0.00,,,-99.99,FreeWX 2.04,2013-09-25 17:42:00,
2013-09-25 11:47:00,74.8,-99.9,24.77,NE,42,15.0,32.2,-999,0.00,,,-99.99,FreeWX 2.04,2013-09-25 17:47:00,
2013-09-25 11:52:00,75.4,-99.9,24.75,NE,44,16.0,28.4,-999,0.00,,,-99.99,FreeWX 2.04,2013-09-25 17:52:00,
2013-09-25 11:57:00,75.2,-99.9,24.75,NE,49,16.0,33.3,-999,0.00,,,-99.99,FreeWX 2.04,2013-09-25 17:57:00,
2013-09-25 12:02:00,75.4,-99.9,24.75,NE,45,15.0,22.4,-999,0.00,,,-99.99,FreeWX 2.04,2013-09-25 18:02:00,
2013-09-25 12:07:00,75.0,-99.9,24.75,NE,42,14.0,25.3,-999,0.00,,,-99.99,FreeWX 2.04,2013-09-25 18:07:00,
2013-09-25 12:12:00,74.7,-99.9,24.75,NE,41,13.0,20.1,-999,0.00,,,-99.99,FreeWX 2.04,2013-09-25 18:12:00,
2013-09-25 12:17:00,74.8,-99.9,24.75,NE,36,13.0,25.3,-999,0.00,,,-99.99,FreeWX 2.04,2013-09-25 18:17:00,
2013-09-25 12:22:00,74.7,-99.9,24.75,NE,46,13.0,28.4,-999,0.00,,,-99.99,FreeWX 2.04,2013-09-25 18:22:00,
2013-09-25 12:27:00,76.1,-99.9,24.75,NE,56,8.0,18.6,-999,0.00,,,-99.99,FreeWX 2.04,2013-09-25 18:27:00,
2013-09-25 12:32:00,75.6,-99.9,24.75,NE,49,8.0,21.9,-999,0.00,,,-99.99,FreeWX 2.04,2013-09-25 18:32:00,
2013-09-25 12:37:00,75.7,-99.9,24.75,NE,45,9.0,14.8,-999,0.00,,,-99.99,FreeWX 2.04,2013-09-25 18:37:00,
2013-09-25 12:42:00,76.3,-99.9,24.75,NE,49,8.0,28.6,-999,0.00,,,-99.99,FreeWX 2.04,2013-09-25 18:42:00,
2013-09-25 12:47:00,76.3,-99.9,24.75,NE,42,11.0,24.2,-999,0.00,,,-99.99,FreeWX 2.04,2013-09-25 18:47:00,
2013-09-25 12:52:00,76.6,-99.9,24.72,NE,40,10.0,24.8,-999,0.00,,,-99.99,FreeWX 2.04,2013-09-25 18:52:00,
2013-09-25 12:57:00,76.8,-99.9,24.72,NE,40,10.0,21.0,-999,0.00,,,-99.99,FreeWX 2.04,2013-09-25 18:57:00,
2013-09-25 13:02:00,76.8,-99.9,24.72,NE,38,10.0,21.5,-999,0.00,,,-99.99,FreeWX 2.04,2013-09-25 19:02:00,
2013-09-25 13:07:00,76.3,-99.9,24.72,NE,45,9.0,25.7,-999,0.00,,,-99.99,FreeWX 2.04,2013-09-25 19:07:00,
2013-09-25 13:12:00,77.7,-99.9,24.72,ENE,65,7.0,17.2,-999,0.00,,,-99.99,FreeWX 2.04,2013-09-25 19:12:00,
2013-09-25 13:17:00,78.4,-99.9,24.72,East,89,7.0,18.1,-999,0.00,,,-99.99,FreeWX 2.04,2013-09-25 19:17:00,
2013-09-25 13:22:00,77.7,-99.9,24.72,East,82,9.0,22.4,-999,0.00,,,-99.99,FreeWX 2.04,2013-09-25 19:22:00,
2013-09-25 13:27:00,78.1,-99.9,24.72,ENE,70,12.0,26.6,-999,0.00,,,-99.99,FreeWX 2.04,2013-09-25 19:27:00,
2013-09-25 13:32:00,77.2,-99.9,24.72,ENE,68,13.0,20.6,-999,0.00,,,-99.99,FreeWX 2.04,2013-09-25 19:32:00,
2013-09-25 13:37:00,78.4,-99.9,24.72,ENE,62,11.0,18.1,-999,0.00,,,-99.99,FreeWX 2.04,2013-09-25 19:37:00,
2013-09-25 13:42:00,78.1,-99.9,24.72,ENE,57,11.0,24.4,-999,0.00,,,-99.99,FreeWX 2.04,2013-09-25 19:42:00,
2013-09-25 13:47:00,77.5,-99.9,24.72,ENE,58,12.0,20.6,-999,0.00,,,-99.99,FreeWX 2.04,2013-09-25 19:47:00,
2013-09-25 13:52:00,77.5,-99.9,24.72,ENE,67,14.0,25.7,-999,0.00,,,-99.99,FreeWX 2.04,2013-09-25 19:52:00,
2013-09-25 13:57:00,77.7,-99.9,24.72,East,79,16.0,26.2,-999,0.00,,,-99.99,FreeWX 2.04,2013-09-25 19:57:00,
2013-09-25 14:02:00,78.3,-99.9,24.72,East,79,16.0,30.4,-999,0.00,,,-99.99,FreeWX 2.04,2013-09-25 20:02:00,
2013-09-25 14:07:00,77.9,-99.9,24.69,ENE,63,11.0,25.7,-999,0.00,,,-99.99,FreeWX 2.04,2013-09-25 20:07:00,
2013-09-25 14:12:00,77.9,-99.9,24.69,ENE,59,9.0,23.7,-999,0.00,,,-99.99,FreeWX 2.04,2013-09-25 20:12:00,
2013-09-25 14:17:00,77.9,-99.9,24.69,ENE,67,13.0,26.6,-999,0.00,,,-99.99,FreeWX 2.04,2013-09-25 20:17:00,
2013-09-25 14:22:00,77.7,-99.9,24.69,ENE,60,14.0,21.9,-999,0.00,,,-99.99,FreeWX 2.04,2013-09-25 20:22:00,
2013-09-25 14:27:00,78.3,-99.9,24.69,ENE,59,11.0,16.8,-999,0.00,,,-99.99,FreeWX 2.04,2013-09-25 20:27:00,
2013-09-25 14:32:00,78.1,-99.9,24.69,NE,54,9.0,26.6,-999,0.00,,,-99.99,FreeWX 2.04,2013-09-25 20:32:00,
2013-09-25 14:37:00,78.4,-99.9,24.69,NE,49,9.0,24.8,-999,0.00,,,-99.99,FreeWX 2.04,2013-09-25 20:37:00,
2013-09-25 14:42:00,79.5,-99.9,24.69,ENE,67,10.0,21.5,-999,0.00,,,-99.99,FreeWX 2.04,2013-09-25 20:42:00,
2013-09-25 14:47:00,79.2,-99.9,24.69,ENE,71,14.0,33.8,-999,0.00,,,-99.99,FreeWX 2.04,2013-09-25 20:47:00,
2013-09-25 14:52:00,78.8,-99.9,24.69,ENE,73,17.0,32.7,-999,0.00,,,-99.99,FreeWX 2.04,2013-09-25 20:52:00,
2013-09-25 14:57:00,79.0,-99.9,24.69,ENE,72,16.0,32.7,-999,0.00,,,-99.99,FreeWX 2.04,2013-09-25 20:57:00,
2013-09-25 15:02:00,79.3,-99.9,24.69,ENE,72,13.0,24.8,-999,0.00,,,-99.99,FreeWX 2.04,2013-09-25 21:02:00,
2013-09-25 15:07:00,79.3,-99.9,24.66,ENE,65,12.0,25.3,-999,0.00,,,-99.99,FreeWX 2.04,2013-09-25 21:07:00,
2013-09-25 15:12:00,79.2,-99.9,24.66,NE,55,11.0,19.5,-999,0.00,,,-99.99,FreeWX 2.04,2013-09-25 21:12:00,
2013-09-25 15:17:00,79.0,-99.9,24.66,NE,48,11.0,29.1,-999,0.00,,,-99.99,FreeWX 2.04,2013-09-25 21:17:00,
2013-09-25 15:22:00,79.5,-99.9,24.66,NE,49,10.0,28.0,-999,0.00,,,-99.99,FreeWX 2.04,2013-09-25 21:22:00,
2013-09-25 15:27:00,79.3,-99.9,24.66,NE,54,10.0,21.9,-999,0.00,,,-99.99,FreeWX 2.04,2013-09-25 21:27:00,
2013-09-25 15:32:00,79.9,-99.9,24.66,ENE,62,11.0,22.4,-999,0.00,,,-99.99,FreeWX 2.04,2013-09-25 21:32:00,
2013-09-25 15:37:00,79.0,-99.9,24.66,ENE,64,13.0,32.2,-999,0.00,,,-99.99,FreeWX 2.04,2013-09-25 21:37:00,
2013-09-25 15:42:00,79.3,-99.9,24.66,NE,54,14.0,21.5,-999,0.00,,,-99.99,FreeWX 2.04,2013-09-25 21:42:00,
2013-09-25 15:47:00,79.7,-99.9,24.66,ENE,62,14.0,24.2,-999,0.00,,,-99.99,FreeWX 2.04,2013-09-25 21:47:00,
2013-09-25 15:52:00,79.5,-99.9,24.66,ENE,62,14.0,26.2,-999,0.00,,,-99.99,FreeWX 2.04,2013-09-25 21:52:00,
2013-09-25 15:57:00,79.7,-99.9,24.66,ENE,65,13.0,26.2,-999,0.00,,,-99.99,FreeWX 2.04,2013-09-25 21:57:00,
2013-09-25 16:02:00,80.2,-99.9,24.66,ENE,76,14.0,22.8,-999,0.00,,,-99.99,FreeWX 2.04,2013-09-25 22:02:00,
2013-09-25 16:07:00,79.5,-99.9,24.66,ENE,69,11.0,22.4,-999,0.00,,,-99.99,FreeWX 2.04,2013-09-25 22:07:00,
2013-09-25 16:12:00,81.0,-99.9,24.66,ENE,72,9.0,18.6,-999,0.00,,,-99.99,FreeWX 2.04,2013-09-25 22:12:00,
2013-09-25 16:17:00,80.8,-99.9,24.66,ENE,74,10.0,19.9,-999,0.00,,,-99.99,FreeWX 2.04,2013-09-25 22:17:00,
2013-09-25 16:22:00,80.4,-99.9,24.63,ENE,66,11.0,20.6,-999,0.00,,,-99.99,FreeWX 2.04,2013-09-25 22:22:00,
2013-09-25 16:27:00,80.4,-99.9,24.63,ENE,63,12.0,27.5,-999,0.00,,,-99.99,FreeWX 2.04,2013-09-25 22:27:00,
2013-09-25 16:32:00,80.1,-99.9,24.63,NE,54,13.0,21.9,-999,0.00,,,-99.99,FreeWX 2.04,2013-09-25 22:32:00,
2013-09-25 16:37:00,80.6,-99.9,24.63,NE,56,10.0,14.8,-999,0.00,,,-99.99,FreeWX 2.04,2013-09-25 22:37:00,
2013-09-25 16:42:00,80.2,-99.9,24.63,ENE,60,10.0,27.5,-999,0.00,,,-99.99,FreeWX 2.04,2013-09-25 22:42:00,
2013-09-25 16:47:00,79.9,-99.9,24.63,NE,55,12.0,31.3,-999,0.00,,,-99.99,FreeWX 2.04,2013-09-25 22:47:00,
2013-09-25 16:52:00,80.2,-99.9,24.63,ENE,61,14.0,26.2,-999,0.00,,,-99.99,FreeWX 2.04,2013-09-25 22:52:00,
2013-09-25 16:57:00,80.6,-99.9,24.63,ENE,72,14.0,26.6,-999,0.00,,,-99.99,FreeWX 2.04,2013-09-25 22:57:00,
2013-09-25 17:02:00,80.2,-99.9,24.63,ENE,57,13.0,21.0,-999,0.00,,,-99.99,FreeWX 2.04,2013-09-25 23:02:00,
2013-09-25 17:07:00,80.4,-99.9,24.63,NE,48,12.0,21.0,-999,0.00,,,-99.99,FreeWX 2.04,2013-09-25 23:07:00,
2013-09-25 17:12:00,80.2,-99.9,24.63,NE,51,12.0,23.7,-999,0.00,,,-99.99,FreeWX 2.04,2013-09-25 23:12:00,
2013-09-25 17:18:00,80.2,-99.9,24.63,NE,49,11.0,20.1,-999,0.00,,,-99.99,FreeWX 2.04,2013-09-25 23:18:00,
2013-09-25 17:23:00,80.4,-99.9,24.63,NE,50,11.0,25.3,-999,0.00,,,-99.99,FreeWX 2.04,2013-09-25 23:23:00,
2013-09-25 17:28:00,80.2,-99.9,24.63,NE,52,12.0,21.5,-999,0.00,,,-99.99,FreeWX 2.04,2013-09-25 23:28:00,
2013-09-25 17:33:00,80.6,-99.9,24.63,ENE,58,11.0,19.5,-999,0.00,,,-99.99,FreeWX 2.04,2013-09-25 23:33:00,
2013-09-25 17:38:00,80.4,-99.9,24.63,ENE,57,11.0,21.5,-999,0.00,,,-99.99,FreeWX 2.04,2013-09-25 23:38:00,
2013-09-25 17:43:00,80.4,-99.9,24.63,NE,56,10.0,16.3,-999,0.00,,,-99.99,FreeWX 2.04,2013-09-25 23:43:00,
2013-09-25 17:48:00,80.6,-99.9,24.63,ENE,62,7.0,16.8,-999,0.00,,,-99.99,FreeWX 2.04,2013-09-25 23:48:00,
2013-09-25 17:53:00,80.4,-99.9,24.63,ENE,64,7.0,17.2,-999,0.00,,,-99.99,FreeWX 2.04,2013-09-25 23:53:00,
2013-09-25 17:58:00,80.2,-99.9,24.63,ENE,63,7.0,14.3,-999,0.00,,,-99.99,FreeWX 2.04,2013-09-25 23:58:00,
2013-09-25 18:03:00,80.1,-99.9,24.63,ENE,63,7.0,11.0,-999,0.00,,,-99.99,FreeWX 2.04,2013-09-26 00:03:00,
2013-09-25 18:08:00,79.9,-99.9,24.63,ENE,69,6.0,11.6,-999,0.00,,,-99.99,FreeWX 2.04,2013-09-26 00:08:00,
2013-09-25 18:13:00,79.9,-99.9,24.63,ENE,73,6.0,13.4,-999,0.00,,,-99.99,FreeWX 2.04,2013-09-26 00:13:00,
2013-09-25 18:18:00,79.5,-99.9,24.63,ENE,65,5.0,9.2,-999,0.00,,,-99.99,FreeWX 2.04,2013-09-26 00:18:00,
2013-09-25 18:23:00,79.5,-99.9,24.63,NE,53,5.0,19.0,-999,0.00,,,-99.99,FreeWX 2.04,2013-09-26 00:23:00,
2013-09-25 18:28:00,79.2,-99.9,24.63,NE,47,8.0,13.4,-999,0.00,,,-99.99,FreeWX 2.04,2013-09-26 00:28:00,
2013-09-25 18:33:00,78.6,-99.9,24.63,ENE,57,7.0,11.2,-999,0.00,,,-99.99,FreeWX 2.04,2013-09-26 00:33:00,
2013-09-25 18:38:00,77.9,-99.9,24.63,NE,54,6.0,10.5,-999,0.00,,,-99.99,FreeWX 2.04,2013-09-26 00:38:00,
2013-09-25 18:43:00,77.7,-99.9,24.63,NE,46,5.0,11.0,-999,0.00,,,-99.99,FreeWX 2.04,2013-09-26 00:43:00,
2013-09-25 18:48:00,77.7,-99.9,24.63,ENE,61,4.0,8.3,-999,0.00,,,-99.99,FreeWX 2.04,2013-09-26 00:48:00,
2013-09-25 18:53:00,77.5,-99.9,24.63,ENE,77,4.0,11.0,-999,0.00,,,-99.99,FreeWX 2.04,2013-09-26 00:53:00,
2013-09-25 18:58:00,77.0,-99.9,24.63,East,82,3.0,6.7,-999,0.00,,,-99.99,FreeWX 2.04,2013-09-26 00:58:00,
2013-09-25 19:03:00,76.5,-99.9,24.63,ENE,78,3.0,6.3,-999,0.00,,,-99.99,FreeWX 2.04,2013-09-26 01:03:00,
2013-09-25 19:08:00,76.5,-99.9,24.63,East,93,3.0,10.1,-999,0.00,,,-99.99,FreeWX 2.04,2013-09-26 01:08:00,
2013-09-25 19:13:00,76.8,-99.9,24.63,East,85,4.0,11.0,-999,0.00,,,-99.99,FreeWX 2.04,2013-09-26 01:13:00,
2013-09-25 19:18:00,75.9,-99.9,24.63,ENE,66,4.0,5.8,-999,0.00,,,-99.99,FreeWX 2.04,2013-09-26 01:18:00,
2013-09-25 19:23:00,75.4,-99.9,24.63,ENE,77,2.0,7.8,-999,0.00,,,-99.99,FreeWX 2.04,2013-09-26 01:23:00,
2013-09-25 19:28:00,75.2,-99.9,24.63,East,91,3.0,6.7,-999,0.00,,,-99.99,FreeWX 2.04,2013-09-26 01:28:00,
2013-09-25 19:33:00,75.4,-99.9,24.63,East,82,3.0,9.6,-999,0.00,,,-99.99,FreeWX 2.04,2013-09-26 01:33:00,
2013-09-25 19:38:00,75.0,-99.9,24.63,ENE,77,2.0,9.2,-999,0.00,,,-99.99,FreeWX 2.04,2013-09-26 01:38:00,
2013-09-25 19:43:00,73.8,-99.9,24.63,East,90,2.0,4.0,-999,0.00,,,-99.99,FreeWX 2.04,2013-09-26 01:43:00,
2013-09-25 19:49:00,73.2,-99.9,24.63,East,92,2.0,6.7,-999,0.00,,,-99.99,FreeWX 2.04,2013-09-26 01:49:00,
2013-09-25 19:54:00,72.7,-99.9,24.63,East,91,2.0,5.4,-999,0.00,,,-99.99,FreeWX 2.04,2013-09-26 01:54:00,
2013-09-25 19:59:00,71.6,-99.9,24.63,East,91,1.0,4.5,-999,0.00,,,-99.99,FreeWX 2.04,2013-09-26 01:59:00,
2013-09-25 20:04:00,71.6,-99.9,24.63,East,89,2.0,5.4,-999,0.00,,,-99.99,FreeWX 2.04,2013-09-26 02:04:00,
2013-09-25 20:09:00,71.6,-99.9,24.63,East,90,3.0,5.8,-999,0.00,,,-99.99,FreeWX 2.04,2013-09-26 02:09:00,
2013-09-25 20:14:00,72.0,-99.9,24.63,East,90,3.0,6.7,-999,0.00,,,-99.99,FreeWX 2.04,2013-09-26 02:14:00,
2013-09-25 20:19:00,72.3,-99.9,24.63,East,86,4.0,7.4,-999,0.00,,,-99.99,FreeWX 2.04,2013-09-26 02:19:00,
2013-09-25 20:24:00,72.3,-99.9,24.66,East,81,5.0,6.7,-999,0.00,,,-99.99,FreeWX 2.04,2013-09-26 02:24:00,
2013-09-25 20:29:00,72.9,-99.9,24.66,East,81,5.0,7.8,-999,0.00,,,-99.99,FreeWX 2.04,2013-09-26 02:29:00,
2013-09-25 20:34:00,72.1,-99.9,24.66,East,82,4.0,5.4,-999,0.00,,,-99.99,FreeWX 2.04,2013-09-26 02:34:00,
2013-09-25 20:39:00,70.9,-99.9,24.66,East,82,2.0,4.0,-999,0.00,,,-99.99,FreeWX 2.04,2013-09-26 02:39:00,
2013-09-25 20:44:00,69.8,-99.9,24.66,East,83,1.0,4.5,-999,0.00,,,-99.99,FreeWX 2.04,2013-09-26 02:44:00,
2013-09-25 20:49:00,69.4,-99.9,24.66,East,83,1.0,4.0,-999,0.00,,,-99.99,FreeWX 2.04,2013-09-26 02:49:00,
2013-09-25 20:54:00,69.3,-99.9,24.66,East,85,1.0,3.1,-999,0.00,,,-99.99,FreeWX 2.04,2013-09-26 02:54:00,
2013-09-25 20:59:00,68.5,-99.9,24.66,East,88,2.0,4.9,-999,0.00,,,-99.99,FreeWX 2.04,2013-09-26 02:59:00,
2013-09-25 21:04:00,68.2,-99.9,24.66,East,91,2.0,3.6,-999,0.00,,,-99.99,FreeWX 2.04,2013-09-26 03:04:00,
2013-09-25 21:09:00,68.2,-99.9,24.66,East,93,1.0,3.1,-999,0.00,,,-99.99,FreeWX 2.04,2013-09-26 03:09:00,
2013-09-25 21:14:00,68.2,-99.9,24.66,East,92,1.0,4.0,-999,0.00,,,-99.99,FreeWX 2.04,2013-09-26 03:14:00,
2013-09-25 21:19:00,68.0,-99.9,24.66,East,88,1.0,4.5,-999,0.00,,,-99.99,FreeWX 2.04,2013-09-26 03:19:00,
2013-09-25 21:24:00,67.5,-99.9,24.66,East,85,1.0,4.5,-999,0.00,,,-99.99,FreeWX 2.04,2013-09-26 03:24:00,
2013-09-25 21:29:00,67.8,-99.9,24.66,North,-999,0.0,4.5,-999,0.00,,,-99.99,FreeWX 2.04,2013-09-26 03:29:00,
2013-09-25 21:34:00,68.0,-99.9,24.66,East,84,1.0,4.5,-999,0.00,,,-99.99,FreeWX 2.04,2013-09-26 03:34:00,
2013-09-25 21:39:00,68.2,-99.9,24.66,East,84,1.0,4.0,-999,0.00,,,-99.99,FreeWX 2.04,2013-09-26 03:39:00,
2013-09-25 21:44:00,68.0,-99.9,24.66,East,84,1.0,3.6,-999,0.00,,,-99.99,FreeWX 2.04,2013-09-26 03:44:00,
2013-09-25 21:49:00,70.5,-99.9,24.66,ENE,75,2.0,10.1,-999,0.00,,,-99.99,FreeWX 2.04,2013-09-26 03:49:00,
2013-09-25 21:54:00,69.6,-99.9,24.66,ENE,66,4.0,7.4,-999,0.00,,,-99.99,FreeWX 2.04,2013-09-26 03:54:00,
2013-09-25 21:59:00,70.3,-99.9,24.66,East,79,4.0,12.5,-999,0.00,,,-99.99,FreeWX 2.04,2013-09-26 03:59:00,
2013-09-25 22:04:00,70.0,-99.9,24.66,East,90,3.0,6.9,-999,0.00,,,-99.99,FreeWX 2.04,2013-09-26 04:04:00,
2013-09-25 22:09:00,69.8,-99.9,24.66,ENE,74,3.0,7.8,-999,0.00,,,-99.99,FreeWX 2.04,2013-09-26 04:09:00,
2013-09-25 22:14:00,69.3,-99.9,24.66,NE,50,4.0,6.9,-999,0.00,,,-99.99,FreeWX 2.04,2013-09-26 04:14:00,
2013-09-25 22:19:00,68.2,-99.9,24.66,NE,46,3.0,6.3,-999,0.00,,,-99.99,FreeWX 2.04,2013-09-26 04:19:00,
2013-09-25 22:24:00,68.2,-99.9,24.66,NE,45,3.0,6.7,-999,0.00,,,-99.99,FreeWX 2.04,2013-09-26 04:24:00,
2013-09-25 22:29:00,67.3,-99.9,24.66,NE,39,3.0,5.8,-999,0.00,,,-99.99,FreeWX 2.04,2013-09-26 04:29:00,
2013-09-25 22:34:00,68.2,-99.9,24.66,NE,39,3.0,6.9,-999,0.00,,,-99.99,FreeWX 2.04,2013-09-26 04:34:00,
2013-09-25 22:39:00,68.7,-99.9,24.66,NE,45,3.0,6.9,-999,0.00,,,-99.99,FreeWX 2.04,2013-09-26 04:39:00,
2013-09-25 22:44:00,69.8,-99.9,24.66,ENE,59,4.0,10.1,-999,0.00,,,-99.99,FreeWX 2.04,2013-09-26 04:44:00,
2013-09-25 22:49:00,72.3,-99.9,24.66,ENE,60,5.0,11.2,-999,0.00,,,-99.99,FreeWX 2.04,2013-09-26 04:49:00,
2013-09-25 22:54:00,72.1,-99.9,24.66,NE,56,5.0,11.6,-999,0.00,,,-99.99,FreeWX 2.04,2013-09-26 04:54:00,
2013-09-25 22:59:00,72.7,-99.9,24.66,ENE,57,6.0,11.6,-999,0.00,,,-99.99,FreeWX 2.04,2013-09-26 04:59:00,
2013-09-25 23:04:00,72.9,-99.9,24.66,ENE,57,7.0,19.9,-999,0.00,,,-99.99,FreeWX 2.04,2013-09-26 05:04:00,
2013-09-25 23:09:00,73.2,-99.9,24.66,ENE,59,9.0,17.2,-999,0.00,,,-99.99,FreeWX 2.04,2013-09-26 05:09:00,
2013-09-25 23:14:00,73.0,-99.9,24.66,ENE,60,9.0,14.3,-999,0.00,,,-99.99,FreeWX 2.04,2013-09-26 05:14:00,
2013-09-25 23:19:00,73.0,-99.9,24.66,NE,56,8.0,15.2,-999,0.00,,,-99.99,FreeWX 2.04,2013-09-26 05:19:00,
2013-09-25 23:24:00,72.9,-99.9,24.69,NE,54,8.0,15.2,-999,0.00,,,-99.99,FreeWX 2.04,2013-09-26 05:24:00,
2013-09-25 23:29:00,73.0,-99.9,24.69,ENE,60,10.0,19.5,-999,0.00,,,-99.99,FreeWX 2.04,2013-09-26 05:29:00,
2013-09-25 23:34:00,73.0,-99.9,24.69,ENE,58,11.0,18.6,-999,0.00,,,-99.99,FreeWX 2.04,2013-09-26 05:34:00,
2013-09-25 23:39:00,72.9,-99.9,24.69,NE,52,9.0,15.4,-999,0.00,,,-99.99,FreeWX 2.04,2013-09-26 05:39:00,
2013-09-25 23:44:00,73.0,-99.9,24.69,NE,50,7.0,13.9,-999,0.00,,,-99.99,FreeWX 2.04,2013-09-26 05:44:00,
2013-09-25 23:49:00,72.1,-99.9,24.69,NE,56,8.0,13.9,-999,0.00,,,-99.99,FreeWX 2.04,2013-09-26 05:49:00,
2013-09-25 23:54:00,71.8,-99.9,24.69,ENE,63,8.0,15.4,-999,0.00,,,-99.99,FreeWX 2.04,2013-09-26 05:54:00,
2013-09-25 23:59:00,71.8,-99.9,24.69,ENE,57,8.0,17.7,-999,0.00,,,-99.99,FreeWX 2.04,2013-09-26 05:59:00,